• In Österreich
  • Länderverzeichnis
  • Für 7 Tage
  • Wassertemperatur
  • Satellitenkarten
  • Wetterkarte
  • News
  • Widgets
  • user-avatar
    Anmelden

    Stündliche Wetter Chipinge

    Heute, 18 Oktober, Donnerstag

    Zeit Temperatur Niederschläge Wind Luftdruck Luftfeuchtigkeit
    00:00 +21°C° 0 mm 2 m/S 668 mmHg 71%
    01:00 +22°C° 0 mm 1 m/S 668 mmHg 74%
    02:00 +21°C° 0 mm 1 m/S 668 mmHg 80%
    03:00 +21°C° 0 mm 1 m/S 668 mmHg 82%
    04:00 +20°C° 0 mm 1 m/S 668 mmHg 83%
    05:00 +20°C° 0 mm 1 m/S 668 mmHg 85%
    06:00 +20°C° 0.1 mm 2 m/S 669 mmHg 81%
    07:00 +23°C° 0.1 mm 2 m/S 670 mmHg 76%
    08:00 +23°C° 0 mm 2 m/S 671 mmHg 76%
    09:00 +22°C° 0.2 mm 3 m/S 671 mmHg 74%
    10:00 +22°C° 0.2 mm 3 m/S 671 mmHg 72%
    11:00 +22°C° 0.2 mm 3 m/S 671 mmHg 70%
    12:00 +22°C° 0.1 mm 3 m/S 671 mmHg 71%
    13:00 +21°C° 0.1 mm 3 m/S 671 mmHg 73%
    14:00 +20°C° 0.1 mm 3 m/S 671 mmHg 74%
    15:00 +20°C° 0 mm 3 m/S 670 mmHg 75%
    16:00 +20°C° 0 mm 3 m/S 670 mmHg 76%
    17:00 +19°C° 0 mm 2 m/S 670 mmHg 77%
    18:00 +19°C° 0 mm 2 m/S 671 mmHg 80%
    19:00 +18°C° 0 mm 2 m/S 671 mmHg 82%
    20:00 +18°C° 0 mm 1 m/S 671 mmHg 85%
    21:00 +18°C° 0 mm 1 m/S 671 mmHg 85%
    22:00 +18°C° 0 mm 1 m/S 671 mmHg 85%
    23:00 +18°C° 0 mm 1 m/S 672 mmHg 85%

    Morgen, 19 Oktober, Freitag

    Zeit Temperatur Niederschläge Wind Luftdruck Luftfeuchtigkeit
    00:00 +18°C° 0 mm 1 m/S 671 mmHg 86%
    01:00 +18°C° 0 mm 1 m/S 671 mmHg 87%
    02:00 +18°C° 0 mm 1 m/S 671 mmHg 89%
    03:00 +18°C° 0 mm 1 m/S 671 mmHg 89%
    04:00 +16°C° 0 mm 1 m/S 671 mmHg 89%
    05:00 +16°C° 0 mm 1 m/S 671 mmHg 90%
    06:00 +19°C° 0 mm 1 m/S 672 mmHg 83%
    07:00 +20°C° 0 mm 1 m/S 672 mmHg 75%
    08:00 +21°C° 0 mm 1 m/S 673 mmHg 68%
    09:00 +24°C° 0 mm 1 m/S 674 mmHg 59%
    10:00 +27°C° 0 mm 2 m/S 674 mmHg 50%
    11:00 +29°C° 0 mm 2 m/S 674 mmHg 41%
    12:00 +30°C° 0 mm 2 m/S 674 mmHg 39%
    13:00 +30°C° 0 mm 2 m/S 673 mmHg 38%
    14:00 +30°C° 0 mm 3 m/S 672 mmHg 37%
    15:00 +29°C° 0 mm 3 m/S 672 mmHg 39%
    16:00 +29°C° 0 mm 3 m/S 671 mmHg 41%
    17:00 +28°C° 0 mm 3 m/S 671 mmHg 43%
    18:00 +26°C° 0 mm 3 m/S 671 mmHg 50%
    19:00 +24°C° 0 mm 3 m/S 671 mmHg 58%
    20:00 +21°C° 0 mm 2 m/S 671 mmHg 65%
    21:00 +20°C° 0 mm 2 m/S 671 mmHg 70%
    22:00 +20°C° 0 mm 2 m/S 671 mmHg 76%
    23:00 +19°C° 0 mm 2 m/S 672 mmHg 82%

    übermorgen, 20 Oktober, Samstag

    Zeit Temperatur Niederschläge Wind Luftdruck Luftfeuchtigkeit
    00:00 +18°C° 0 mm 2 m/S 671 mmHg 84%
    01:00 +19°C° 0 mm 1 m/S 671 mmHg 86%
    02:00 +19°C° 0 mm 1 m/S 671 mmHg 88%
    03:00 +19°C° 0 mm 1 m/S 671 mmHg 89%
    04:00 +18°C° 0 mm 1 m/S 671 mmHg 90%
    05:00 +18°C° 0 mm 1 m/S 671 mmHg 91%
    06:00 +20°C° 0 mm 1 m/S 672 mmHg 81%
    07:00 +23°C° 0 mm 1 m/S 673 mmHg 70%
    08:00 +25°C° 0 mm 1 m/S 674 mmHg 59%
    09:00 +27°C° 0 mm 2 m/S 674 mmHg 48%
    10:00 +30°C° 0 mm 2 m/S 675 mmHg 38%
    11:00 +33°C° 0 mm 3 m/S 675 mmHg 28%
    12:00 +33°C° 0 mm 3 m/S 675 mmHg 26%
    13:00 +33°C° 0 mm 3 m/S 674 mmHg 24%
    14:00 +34°C° 0 mm 4 m/S 673 mmHg 23%
    15:00 +33°C° 0 mm 4 m/S 673 mmHg 25%
    16:00 +32°C° 0 mm 4 m/S 673 mmHg 27%
    17:00 +29°C° 0 mm 5 m/S 673 mmHg 29%
    18:00 +27°C° 0 mm 4 m/S 673 mmHg 35%
    19:00 +25°C° 0 mm 4 m/S 674 mmHg 42%
    20:00 +22°C° 0 mm 3 m/S 675 mmHg 48%
    21:00 +21°C° 0 mm 3 m/S 675 mmHg 55%
    22:00 +19°C° 0 mm 4 m/S 676 mmHg 63%
    23:00 +18°C° 0 mm 4 m/S 676 mmHg 70%

    21 Oktober, Sonntag

    Zeit Temperatur Niederschläge Wind Luftdruck Luftfeuchtigkeit
    00:00 +17°C° 0.2 mm 3 m/S 676 mmHg 74%
    01:00 +17°C° 0.2 mm 3 m/S 676 mmHg 78%
    02:00 +16°C° 0.2 mm 3 m/S 676 mmHg 82%
    03:00 +16°C° 0.2 mm 3 m/S 676 mmHg 83%
    04:00 +14°C° 0.2 mm 3 m/S 676 mmHg 83%
    05:00 +14°C° 0.2 mm 3 m/S 676 mmHg 84%
    06:00 +14°C° 0.1 mm 3 m/S 677 mmHg 80%
    07:00 +14°C° 0.1 mm 3 m/S 677 mmHg 77%
    08:00 +14°C° 0.1 mm 3 m/S 678 mmHg 74%
    09:00 +16°C° 0 mm 3 m/S 678 mmHg 66%
    10:00 +18°C° 0 mm 3 m/S 678 mmHg 58%
    11:00 +19°C° 0 mm 3 m/S 679 mmHg 49%
    12:00 +20°C° 0 mm 4 m/S 678 mmHg 47%
    13:00 +20°C° 0 mm 4 m/S 678 mmHg 44%
    14:00 +21°C° 0 mm 4 m/S 677 mmHg 41%
    15:00 +21°C° 0 mm 4 m/S 677 mmHg 41%
    16:00 +20°C° 0 mm 4 m/S 677 mmHg 42%
    17:00 +20°C° 0 mm 3 m/S 677 mmHg 42%
    18:00 +19°C° 0 mm 3 m/S 677 mmHg 44%
    19:00 +18°C° 0 mm 3 m/S 678 mmHg 46%
    20:00 +17°C° 0 mm 3 m/S 678 mmHg 48%
    21:00 +16°C° 0 mm 3 m/S 678 mmHg 51%
    22:00 +16°C° 0 mm 3 m/S 678 mmHg 54%
    23:00 +14°C° 0 mm 3 m/S 678 mmHg 57%

    22 Oktober, Montag

    Zeit Temperatur Niederschläge Wind Luftdruck Luftfeuchtigkeit
    00:00 +13°C° 0 mm 3 m/S 677 mmHg 60%
    01:00 +12°C° 0 mm 3 m/S 677 mmHg 63%
    02:00 +12°C° 0 mm 3 m/S 676 mmHg 66%
    03:00 +12°C° 0 mm 2 m/S 676 mmHg 68%
    04:00 +12°C° 0 mm 2 m/S 677 mmHg 69%
    05:00 +10°C° 0 mm 2 m/S 677 mmHg 71%
    06:00 +13°C° 0 mm 2 m/S 677 mmHg 65%
    07:00 +14°C° 0 mm 2 m/S 678 mmHg 59%
    08:00 +16°C° 0 mm 2 m/S 679 mmHg 53%
    09:00 +17°C° 0 mm 3 m/S 679 mmHg 47%
    10:00 +19°C° 0 mm 3 m/S 679 mmHg 40%
    11:00 +21°C° 0 mm 3 m/S 678 mmHg 34%
    12:00 +22°C° 0 mm 3 m/S 678 mmHg 32%
    13:00 +22°C° 0 mm 3 m/S 677 mmHg 29%
    14:00 +23°C° 0 mm 4 m/S 676 mmHg 27%
    15:00 +22°C° 0 mm 4 m/S 676 mmHg 28%
    16:00 +21°C° 0 mm 3 m/S 676 mmHg 28%
    17:00 +21°C° 0 mm 3 m/S 676 mmHg 29%
    18:00 +19°C° 0 mm 3 m/S 676 mmHg 32%
    19:00 +18°C° 0 mm 2 m/S 676 mmHg 36%
    20:00 +16°C° 0 mm 2 m/S 676 mmHg 39%
    21:00 +16°C° 0 mm 2 m/S 676 mmHg 46%
    22:00 +15°C° 0 mm 2 m/S 676 mmHg 53%
    23:00 +15°C° 0 mm 2 m/S 676 mmHg 60%

    23 Oktober, Dienstag

    Zeit Temperatur Niederschläge Wind Luftdruck Luftfeuchtigkeit
    00:00 +14°C° 0 mm 2 m/S 676 mmHg 66%
    01:00 +14°C° 0 mm 2 m/S 675 mmHg 72%
    02:00 +14°C° 0 mm 2 m/S 675 mmHg 78%
    03:00 +13°C° 0 mm 2 m/S 675 mmHg 79%
    04:00 +13°C° 0 mm 2 m/S 675 mmHg 80%
    05:00 +13°C° 0 mm 2 m/S 676 mmHg 81%
    06:00 +14°C° 0 mm 2 m/S 676 mmHg 76%
    07:00 +15°C° 0 mm 2 m/S 677 mmHg 70%
    08:00 +16°C° 0 mm 2 m/S 677 mmHg 65%
    09:00 +18°C° 0 mm 2 m/S 677 mmHg 58%
    10:00 +20°C° 0 mm 2 m/S 677 mmHg 52%
    11:00 +21°C° 0 mm 3 m/S 677 mmHg 45%
    12:00 +22°C° 0 mm 3 m/S 677 mmHg 42%
    13:00 +24°C° 0 mm 3 m/S 676 mmHg 39%
    14:00 +25°C° 0 mm 4 m/S 676 mmHg 35%
    15:00 +23°C° 0 mm 4 m/S 676 mmHg 38%
    16:00 +22°C° 0 mm 4 m/S 675 mmHg 41%
    17:00 +21°C° 0 mm 4 m/S 675 mmHg 44%
    18:00 +19°C° 0 mm 4 m/S 675 mmHg 51%
    19:00 +18°C° 0 mm 3 m/S 675 mmHg 58%
    20:00 +16°C° 0 mm 3 m/S 676 mmHg 65%
    21:00 +16°C° 0 mm 3 m/S 675 mmHg 70%
    22:00 +15°C° 0 mm 2 m/S 675 mmHg 74%
    23:00 +14°C° 0 mm 2 m/S 675 mmHg 79%
    Mehr zeigen